Terug naar catalogus

DELTA 1 DEB

ActiefSSO
NORAD 42574·DEBRIS·🇺🇸 United States

Gelanceerd Nov 6, 1973 vanaf Vandenberg Space Force Base

Loading…

Volgende Passages (komende 24 uur)

TLE

VerouderendSource: Space-Track

Epoch: Sep 9, 2026, 04:40 UTC

1 42574U 73086HN  26252.19445054  .00000137  00000-0  12276-2 0  9996
2 42574 102.0309 245.3978 0026030  96.1841 264.2193 12.48197864583549

Volg DELTA 1 DEB in realtime met AllMySat

Download on the App Store